sat.trackr.live / text

‹ back to catalog

LUCAS (JDRS-1)

NORAD 47202 · 2020-089A

PAYLOAD ACTIVE UNKNOWN

§ Identity

Operator
Country
JPN
Launch date
2020-11-29
Launch site
TANSC
Launch vehicle
Mass (kg)
RCS (m²)

Purposes: comms

External: N2YO · Heavens-Above · Gunter

§ Orbital elements

Epoch: 2026-05-25T00:45:14.305248Z

Period
1,436.09 min
Inclination
0.0122°
Eccentricity
0.0002497
Mean motion
1.00272582 rev/d
Perigee alt
35,775.8 km
Apogee alt
35,796.9 km
Semi-major
42,164.5 km
B*
0.0000e+0
RAAN
297.8347°
Arg perigee
118.9776°
Mean anomaly
287.9185°
Rev number
2,018

§ Raw data

LUCAS (JDRS-1)1 47202U 20089A   26145.03141557 -.00000238  00000+0  00000+0 0  99902 47202   0.0122 297.8347 0002497 118.9776 287.9185  1.00272582 20181

JSON: /api/v1/satellites/47202 · /tle

For live sub-satellite position, see the globe view (requires WebGL).

§ Visibility from observer

Set your observer location to see the next 7 days of passes ≥ 10°. The values pass through the URL so the page stays shareable.

No JS? Fill the form by hand. The geolocation button needs JavaScript.